(706) 295-7835

For Pilots


KRMG 240253Z AUTO 04003KT 10SM OVC085 13/03 A3019 RMK AO2 SLP219 T01280033 53005

Location & Communications

Get detailed information about the airport, provided by AirNav.

Pilot Services

We have fuel services, on-site repair and maintenance, 24-hour security and more.

Fuel Points

Russell Regional Airport is a Shell Aviation merchant and is proud to participate in the Shell Aero Class Rewards program!

Today's Fuel Prices

Jet A $4.24 / gallon
AvGas (100LL) $4.60 / gallon
Self Serve AvGas $3.74 / gallon
Learn about fuel points program